Tracking 18784 objects as of 17-August-2017
HD Live streaming from Space Station
objects crossing your sky now

DELTA 1 DEB

Track DELTA 1 DEB now!
10-day predictions


NORAD ID: 15205
Int'l Code: 1984-088E
Perigee: 554.8 km
Apogee: 3,858.8 km
Inclination: 28.7 °
Period: 131.8 minutes
Semi major axis: 8577 km
RCS: 0.0578 m2 (small)
Launch date: August 16, 1984
Source: United States (US)
Launch site: AIR FORCE EASTERN TEST RANGE (AFETR)

Note: This is SATELLITE DEBRIS
Your satellite tracking list
Your tracking list is empty





NASA's NSSDC Master Catalog

Two Line Element Set (TLE):
1 15205U 84088E   17223.96230618 +.00000128 +00000-0 +33101-4 0  9994
2 15205 028.7330 091.0086 1925919 221.0157 284.6292 10.92797085883949
Source of the keplerian elements: AFSPC